Weather History for Madison, MN

Change the Weather History Date:

Wednesday, February 20, 2013

  Actual Average (KAQP) Record (KAQP)
Temperature  
Mean Temperature -6 °F -  
Max Temperature 5 °F 26 °F 44 °F (2007)
Min Temperature -16 °F 10 °F -25 °F (2008)
Degree Days  
Heating Degree Days 70    
Moisture  
Dew Point -11 °F    
Average Humidity 77    
Maximum Humidity 85    
Minimum Humidity 70    
Precipitation  
Precipitation 0.00 in - - ()
Sea Level Pressure  
Sea Level Pressure 30.41 in    
Wind  
Wind Speed 5 mph (NE)    
Max Wind Speed 9 mph    
Max Gust Speed -    
Visibility 10 miles    
Events      
Averages and records for this station are not official NWS values.
T = Trace of Precipitation, MM = Missing Value Source: NWS Daily Summary

Daily Weather History Graph

Daily Weather History Graph

Search for Another Location

Airport:

Trip Planner

Search our weather history database for the weather conditions in past years. The results will help you decide how hot, cold, wet, or windy it might be!

Date:

Astronomy

Feb. 20, 2013 Rise Set
Actual Time 7:17 AM CST 6:00 PM CST
Civil Twilight 6:47 AM CST 6:30 PM CST
Nautical Twilight 6:13 AM CST 7:04 PM CST
Astronomical Twilight 5:39 AM CST 7:38 PM CST
Moon 1:14 PM CST 3:46 AM CST
Length of Visible Light 11h 42m
Length of Day
10h 42m
Waxing Gibbous, 76% of the Moon is Illuminated
Feb 20
Waxing Gibbous
Feb 25
Full
Mar 4
Last Quarter
Mar 11
New
Mar 19
First Quarter

Hourly Weather History & Observations

Time (CST) Temp. Windchill Dew Point Humidity Pressure Visibility Wind Dir Wind Speed Gust Speed Precip Events Conditions
12:14 AM -9.4 °F -24.3 °F -16.6 °F 71% 30.45 in 10.0 mi NW 6.9 mph - N/A   Clear
12:34 AM -11.2 °F -27.8 °F -16.6 °F 77% 30.45 in 10.0 mi NW 8.1 mph - N/A   Clear
12:53 AM -11.2 °F -29.0 °F -16.6 °F 77% 30.46 in 10.0 mi WNW 9.2 mph - N/A   Clear
1:14 AM -11.2 °F -24.8 °F -18.4 °F 70% 30.45 in 10.0 mi NW 5.8 mph - N/A   Clear
1:33 AM -11.2 °F -27.8 °F -18.4 °F 70% 30.46 in 10.0 mi NW 8.1 mph - N/A   Clear
1:54 AM -13.0 °F -28.6 °F -18.4 °F 77% 30.46 in 10.0 mi NW 6.9 mph - N/A   Clear
2:13 AM -13.0 °F -28.6 °F -18.4 °F 77% 30.47 in 10.0 mi WNW 6.9 mph - N/A   Clear
3:14 AM -13.0 °F -27.0 °F -18.4 °F 77% 30.46 in 10.0 mi WNW 5.8 mph - N/A   Clear
3:34 AM -14.8 °F -30.8 °F -18.4 °F 84% 30.46 in 10.0 mi NW 6.9 mph - N/A   Clear
3:53 AM - - - N/A% 30.45 in 10.0 mi NNW 6.9 mph - N/A   Clear
4:14 AM -13.0 °F -28.6 °F -18.4 °F 77% 30.44 in 10.0 mi NNW 6.9 mph - N/A   Clear
4:29 AM -13.0 °F -25.1 °F -18.4 °F 77% 30.45 in 10.0 mi NNW 4.6 mph - N/A   Clear
4:50 AM -13.0 °F -28.6 °F -18.4 °F 77% 30.44 in 10.0 mi North 6.9 mph - N/A   Clear
5:14 AM -13.0 °F -30.0 °F -18.4 °F 77% 30.44 in 10.0 mi North 8.1 mph - N/A   Clear
5:34 AM -14.8 °F -27.2 °F -20.2 °F 77% 30.44 in 10.0 mi North 4.6 mph - N/A   Clear
5:53 AM -14.8 °F -27.2 °F -20.2 °F 77% 30.46 in 10.0 mi West 4.6 mph - N/A   Clear
6:14 AM -16.6 °F -31.3 °F -22.0 °F 76% 30.46 in 10.0 mi West 5.8 mph - N/A   Clear
6:34 AM -16.6 °F -29.3 °F -20.2 °F 84% 30.45 in 10.0 mi WNW 4.6 mph - N/A   Clear
6:53 AM -16.6 °F -29.3 °F -23.8 °F 70% 30.44 in 10.0 mi North 4.6 mph - N/A   Clear
7:14 AM -16.6 °F - -22.0 °F 76% 30.44 in 10.0 mi Calm Calm - N/A   Clear
7:33 AM -14.8 °F - -20.2 °F 77% 30.44 in 10.0 mi Calm Calm - N/A   Clear
7:54 AM -16.6 °F - -22.0 °F 76% 30.45 in 10.0 mi Calm Calm - N/A   Clear
8:13 AM -16.6 °F -26.8 °F -22.0 °F 76% 30.45 in 10.0 mi WNW 3.5 mph - N/A   Clear
8:34 AM -14.8 °F -27.2 °F -20.2 °F 77% 30.45 in 10.0 mi West 4.6 mph - N/A   Clear
8:54 AM -13.0 °F -27.0 °F -18.4 °F 77% 30.45 in 10.0 mi WNW 5.8 mph - N/A   Clear
9:13 AM -11.2 °F -23.0 °F -18.4 °F 70% 30.44 in 10.0 mi WNW 4.6 mph - N/A   Clear
9:34 AM -11.2 °F -20.6 °F -16.6 °F 77% 30.44 in 10.0 mi North 3.5 mph - N/A   Clear
9:54 AM -9.4 °F - -16.6 °F 71% 30.44 in 10.0 mi Calm Calm - N/A   Clear
10:13 AM -9.4 °F - -16.6 °F 71% 30.44 in 10.0 mi Calm Calm - N/A   Clear
10:33 AM -7.6 °F - -14.8 °F 71% 30.44 in 10.0 mi Calm Calm - N/A   Clear
10:54 AM -7.6 °F - -14.8 °F 71% 30.44 in 10.0 mi Calm Calm - N/A   Clear
11:13 AM -5.8 °F - -11.2 °F 77% 30.43 in 10.0 mi Calm Calm - N/A   Clear
11:33 AM -5.8 °F - -11.2 °F 77% 30.44 in 10.0 mi Calm Calm - N/A   Clear
11:54 AM -4.0 °F - -9.4 °F 78% 30.43 in 10.0 mi Calm Calm - N/A   Clear
12:13 PM -2.2 °F - -9.4 °F 71% 30.43 in 10.0 mi Calm Calm - N/A   Clear
12:33 PM -2.2 °F -14.2 °F -7.6 °F 78% 30.42 in 10.0 mi SE 5.8 mph - N/A   Clear
1:13 PM -0.4 °F -10.4 °F -7.6 °F 72% 30.42 in 10.0 mi SSE 4.6 mph - N/A   Clear
1:34 PM 1.4 °F -11.3 °F -5.8 °F 72% 30.42 in 10.0 mi SSE 6.9 mph - N/A   Clear
1:53 PM 1.4 °F -9.9 °F -5.8 °F 72% 30.41 in 10.0 mi SSE 5.8 mph - N/A   Clear
2:14 PM 1.4 °F -11.3 °F -4.0 °F 78% 30.41 in 10.0 mi SSE 6.9 mph - N/A   Clear
2:53 PM 3.2 °F -7.8 °F -2.2 °F 78% 30.39 in 10.0 mi SE 5.8 mph - N/A   Clear
3:14 PM 3.2 °F -6.2 °F -2.2 °F 78% 30.39 in 10.0 mi SE 4.6 mph - N/A   Clear
3:34 PM 3.2 °F -7.8 °F -2.2 °F 78% 30.38 in 10.0 mi ESE 5.8 mph - N/A   Clear
4:14 PM 5.0 °F -5.6 °F -2.2 °F 72% 30.37 in 10.0 mi ESE 5.8 mph - N/A   Clear
4:34 PM 5.0 °F -8.1 °F -2.2 °F 72% 30.38 in 10.0 mi East 8.1 mph - N/A   Clear
4:53 PM 5.0 °F -6.9 °F -2.2 °F 72% 30.37 in 10.0 mi ESE 6.9 mph - N/A   Clear
5:14 PM 5.0 °F -5.6 °F -2.2 °F 72% 30.37 in 10.0 mi ESE 5.8 mph - N/A   Clear
5:34 PM 5.0 °F -5.6 °F -2.2 °F 72% 30.37 in 10.0 mi ESE 5.8 mph - N/A   Clear
5:53 PM 3.2 °F -6.2 °F -2.2 °F 78% 30.37 in 10.0 mi ESE 4.6 mph - N/A   Clear
6:14 PM 3.2 °F -6.2 °F -2.2 °F 78% 30.37 in 10.0 mi East 4.6 mph - N/A   Clear
6:33 PM 3.2 °F -10.3 °F -2.2 °F 78% 30.36 in 10.0 mi East 8.1 mph - N/A   Clear
6:53 PM 1.4 °F -13.5 °F -2.2 °F 85% 30.36 in 10.0 mi East 9.2 mph - N/A   Clear
7:14 PM 3.2 °F -7.8 °F -2.2 °F 78% 30.36 in 10.0 mi ESE 5.8 mph - N/A   Clear
7:33 PM 3.2 °F -7.8 °F -2.2 °F 78% 30.35 in 10.0 mi East 5.8 mph - N/A   Clear
7:53 PM 1.4 °F -8.3 °F -2.2 °F 85% 30.35 in 10.0 mi SE 4.6 mph - N/A   Clear
8:14 PM 3.2 °F -6.2 °F -2.2 °F 78% 30.34 in 10.0 mi ESE 4.6 mph - N/A   Clear
8:33 PM 1.4 °F -6.2 °F -2.2 °F 85% 30.34 in 10.0 mi ESE 3.5 mph - N/A   Clear
8:53 PM 1.4 °F -8.3 °F -2.2 °F 85% 30.34 in 10.0 mi SE 4.6 mph - N/A   Clear
9:14 PM 1.4 °F -6.2 °F -2.2 °F 85% 30.34 in 10.0 mi SSE 3.5 mph - N/A   Clear
9:33 PM 1.4 °F - -2.2 °F 85% 30.34 in 10.0 mi Calm Calm - N/A   Clear
9:53 PM 1.4 °F - -2.2 °F 85% 30.35 in 10.0 mi Calm Calm - N/A   Clear
10:14 PM 1.4 °F - -2.2 °F 85% 30.34 in 10.0 mi Calm Calm - N/A   Clear
10:33 PM 1.4 °F - -2.2 °F 85% 30.35 in 10.0 mi Calm Calm - N/A   Clear
10:53 PM 1.4 °F - -2.2 °F 85% 30.35 in 10.0 mi Calm Calm - N/A   Clear
11:14 PM 1.4 °F - -2.2 °F 85% 30.35 in 10.0 mi Calm Calm - N/A   Clear
11:34 PM -0.4 °F - -5.8 °F 78% 30.35 in 10.0 mi Calm Calm - N/A   Clear
11:53 PM -0.4 °F - -5.8 °F 78% 30.35 in 10.0 mi Calm Calm - N/A   Clear